Time,TemperatureF,DewpointF,PressureIn,WindDirection,WindDirectionDegrees,WindSpeedMPH,WindSpeedGustMPH,Humidity,HourlyPrecipIn,Conditions,Clouds,dailyrainin,SoftwareType,DateUTC
2014-02-26 00:02:00,60.6,29.0,29.98,WNW,293,0.0,0.0,30,0.00,,,0.00,Wunderground v.1.15,2014-02-26 05:02:00,
2014-02-26 00:07:00,60.5,29.7,29.97,WNW,293,0.0,0.0,31,0.00,,,0.00,Wunderground v.1.15,2014-02-26 05:07:00,
2014-02-26 00:08:00,60.4,29.6,29.97,WNW,293,0.0,0.0,31,0.00,,,0.00,Wunderground v.1.15,2014-02-26 05:08:00,
2014-02-26 00:12:00,60.2,29.4,29.97,WNW,293,0.0,0.0,31,0.00,,,0.00,Wunderground v.1.15,2014-02-26 05:12:00,
2014-02-26 00:17:00,60.0,29.2,29.97,WNW,293,0.0,0.0,31,0.00,,,0.00,Wunderground v.1.15,2014-02-26 05:17:00,
2014-02-26 00:22:00,59.8,29.1,29.97,WNW,293,0.0,0.0,31,0.00,,,0.00,Wunderground v.1.15,2014-02-26 05:22:00,
2014-02-26 00:24:00,59.7,29.8,29.97,WNW,293,0.0,0.0,32,0.00,,,0.00,Wunderground v.1.15,2014-02-26 05:24:00,
2014-02-26 00:32:00,59.5,29.6,29.97,WNW,293,0.0,0.0,32,0.00,,,0.00,Wunderground v.1.15,2014-02-26 05:32:00,
2014-02-26 00:37:00,59.3,29.4,29.96,WNW,293,0.0,0.0,32,0.00,,,0.00,Wunderground v.1.15,2014-02-26 05:37:00,
2014-02-26 00:42:00,59.2,29.3,29.96,WNW,293,0.0,0.0,32,0.00,,,0.00,Wunderground v.1.15,2014-02-26 05:42:00,
2014-02-26 00:47:00,59.0,29.2,29.96,WNW,293,0.0,0.0,32,0.00,,,0.00,Wunderground v.1.15,2014-02-26 05:47:00,
2014-02-26 00:53:00,58.8,29.7,29.95,WNW,293,0.0,0.0,33,0.00,,,0.00,Wunderground v.1.15,2014-02-26 05:53:00,
2014-02-26 00:58:00,58.7,28.9,29.95,WNW,293,0.0,0.0,32,0.00,,,0.00,Wunderground v.1.15,2014-02-26 05:58:00,
2014-02-26 01:04:00,58.6,28.8,29.94,WNW,293,0.0,0.0,32,0.00,,,0.00,Wunderground v.1.15,2014-02-26 06:04:00,
2014-02-26 01:09:00,58.5,28.7,29.94,WNW,293,0.0,0.0,32,0.00,,,0.00,Wunderground v.1.15,2014-02-26 06:09:00,
2014-02-26 01:14:00,58.4,28.6,29.94,WNW,293,0.0,0.0,32,0.00,,,0.00,Wunderground v.1.15,2014-02-26 06:14:00,
2014-02-26 01:19:00,58.7,28.9,29.94,WNW,293,0.0,0.0,32,0.00,,,0.00,Wunderground v.1.15,2014-02-26 06:19:00,
2014-02-26 01:27:00,59.0,29.2,29.94,WNW,293,0.0,0.0,32,0.00,,,0.00,Wunderground v.1.15,2014-02-26 06:27:00,
2014-02-26 01:33:00,59.0,29.2,29.94,WNW,293,0.0,0.0,32,0.00,,,0.00,Wunderground v.1.15,2014-02-26 06:33:00,
2014-02-26 01:39:00,58.9,29.1,29.94,WNW,293,0.0,0.0,32,0.00,,,0.00,Wunderground v.1.15,2014-02-26 06:39:00,
2014-02-26 01:47:00,58.8,29.0,29.94,WNW,293,0.0,0.0,32,0.00,,,0.00,Wunderground v.1.15,2014-02-26 06:47:00,
2014-02-26 01:52:00,58.8,29.0,29.93,WNW,293,0.0,0.0,32,0.00,,,0.00,Wunderground v.1.15,2014-02-26 06:52:00,
2014-02-26 01:57:00,58.6,28.8,29.93,WNW,293,0.0,0.0,32,0.00,,,0.00,Wunderground v.1.15,2014-02-26 06:57:00,
2014-02-26 02:03:00,58.6,28.8,29.93,WNW,293,0.0,0.0,32,0.00,,,0.00,Wunderground v.1.15,2014-02-26 07:03:00,
2014-02-26 02:09:00,58.4,28.6,29.93,WNW,293,0.0,0.0,32,0.00,,,0.00,Wunderground v.1.15,2014-02-26 07:09:00,
2014-02-26 02:14:00,58.3,28.5,29.92,WNW,293,0.0,0.0,32,0.00,,,0.00,Wunderground v.1.15,2014-02-26 07:14:00,
2014-02-26 02:19:00,58.3,28.5,29.92,WNW,293,0.0,0.0,32,0.00,,,0.00,Wunderground v.1.15,2014-02-26 07:19:00,
2014-02-26 02:24:00,58.3,28.5,29.92,WNW,293,0.0,0.0,32,0.00,,,0.00,Wunderground v.1.15,2014-02-26 07:24:00,
2014-02-26 02:29:00,58.3,28.5,29.92,WNW,293,0.0,0.0,32,0.00,,,0.00,Wunderground v.1.15,2014-02-26 07:29:00,
2014-02-26 02:34:00,58.2,28.5,29.91,WNW,293,0.0,0.0,32,0.00,,,0.00,Wunderground v.1.15,2014-02-26 07:34:00,
2014-02-26 02:39:00,58.2,29.2,29.91,WNW,293,0.0,0.0,33,0.00,,,0.00,Wunderground v.1.15,2014-02-26 07:39:00,
2014-02-26 02:47:00,58.4,28.6,29.91,WNW,293,0.0,0.0,32,0.00,,,0.00,Wunderground v.1.15,2014-02-26 07:47:00,
2014-02-26 02:52:00,58.4,29.4,29.91,WNW,293,0.0,0.0,33,0.00,,,0.00,Wunderground v.1.15,2014-02-26 07:52:00,
2014-02-26 02:57:00,58.3,29.3,29.91,WNW,293,0.0,0.0,33,0.00,,,0.00,Wunderground v.1.15,2014-02-26 07:57:00,
2014-02-26 03:02:00,58.2,29.2,29.91,WNW,293,0.0,0.0,33,0.00,,,0.00,Wunderground v.1.15,2014-02-26 08:02:00,
2014-02-26 03:07:00,58.1,29.1,29.90,WNW,293,0.0,0.0,33,0.00,,,0.00,Wunderground v.1.15,2014-02-26 08:07:00,
2014-02-26 03:12:00,58.0,29.0,29.90,WNW,293,0.0,0.0,33,0.00,,,0.00,Wunderground v.1.15,2014-02-26 08:12:00,
2014-02-26 03:18:00,58.0,29.0,29.90,WNW,293,0.0,0.0,33,0.00,,,0.00,Wunderground v.1.15,2014-02-26 08:18:00,
2014-02-26 03:23:00,57.9,28.9,29.90,WNW,293,0.0,0.0,33,0.00,,,0.00,Wunderground v.1.15,2014-02-26 08:23:00,
2014-02-26 03:28:00,57.8,28.9,29.89,WNW,293,0.0,0.0,33,0.00,,,0.00,Wunderground v.1.15,2014-02-26 08:28:00,
2014-02-26 03:34:00,57.9,29.7,29.89,WNW,293,0.0,0.0,34,0.00,,,0.01,Wunderground v.1.15,2014-02-26 08:34:00,
2014-02-26 03:39:00,58.2,29.9,29.89,WNW,293,0.0,0.0,34,0.00,,,0.01,Wunderground v.1.15,2014-02-26 08:39:00,
2014-02-26 03:44:00,58.4,30.1,29.89,WNW,293,0.0,0.0,34,0.00,,,0.01,Wunderground v.1.15,2014-02-26 08:44:00,
2014-02-26 03:49:00,58.6,30.3,29.89,WNW,293,0.0,0.0,34,0.00,,,0.01,Wunderground v.1.15,2014-02-26 08:49:00,
2014-02-26 03:54:00,58.6,30.3,29.89,WNW,293,0.0,0.0,34,0.00,,,0.01,Wunderground v.1.15,2014-02-26 08:54:00,
2014-02-26 03:59:00,58.6,30.3,29.89,WNW,293,0.0,0.0,34,0.00,,,0.01,Wunderground v.1.15,2014-02-26 08:59:00,
2014-02-26 04:04:00,58.7,30.4,29.89,WNW,293,0.0,0.0,34,0.00,,,0.01,Wunderground v.1.15,2014-02-26 09:04:00,
2014-02-26 04:09:00,58.9,30.6,29.89,WNW,293,0.0,0.0,34,0.00,,,0.01,Wunderground v.1.15,2014-02-26 09:09:00,
2014-02-26 04:14:00,59.0,30.6,29.89,WNW,293,0.0,0.0,34,0.00,,,0.01,Wunderground v.1.15,2014-02-26 09:14:00,
2014-02-26 04:19:00,59.0,30.6,29.89,WNW,293,0.0,0.0,34,0.00,,,0.01,Wunderground v.1.15,2014-02-26 09:19:00,
2014-02-26 04:24:00,59.0,30.6,29.89,WNW,293,0.0,0.0,34,0.00,,,0.01,Wunderground v.1.15,2014-02-26 09:24:00,
2014-02-26 04:29:00,59.0,30.6,29.89,WNW,293,0.0,0.0,34,0.00,,,0.01,Wunderground v.1.15,2014-02-26 09:29:00,
2014-02-26 04:34:00,59.0,30.6,29.90,WNW,293,0.0,0.0,34,0.00,,,0.01,Wunderground v.1.15,2014-02-26 09:34:00,
2014-02-26 04:42:00,58.8,30.5,29.90,WNW,293,0.0,0.0,34,0.00,,,0.01,Wunderground v.1.15,2014-02-26 09:42:00,
2014-02-26 04:47:00,58.6,30.3,29.89,WNW,293,0.0,0.0,34,0.00,,,0.01,Wunderground v.1.15,2014-02-26 09:47:00,
2014-02-26 04:52:00,58.3,30.0,29.90,WNW,293,0.0,0.0,34,0.00,,,0.01,Wunderground v.1.15,2014-02-26 09:52:00,
2014-02-26 04:58:00,58.2,29.9,29.90,WNW,293,0.0,0.0,34,0.00,,,0.01,Wunderground v.1.15,2014-02-26 09:58:00,
2014-02-26 05:04:00,58.1,29.8,29.90,WNW,293,0.0,0.0,34,0.00,,,0.01,Wunderground v.1.15,2014-02-26 10:04:00,
2014-02-26 05:09:00,58.1,29.8,29.90,WNW,293,0.0,0.0,34,0.00,,,0.01,Wunderground v.1.15,2014-02-26 10:09:00,
2014-02-26 05:17:00,58.3,30.7,29.90,WNW,293,0.0,0.0,35,0.00,,,0.01,Wunderground v.1.15,2014-02-26 10:17:00,
2014-02-26 05:22:00,58.5,30.9,29.90,WNW,293,0.0,0.0,35,0.00,,,0.01,Wunderground v.1.15,2014-02-26 10:22:00,
2014-02-26 05:27:00,58.5,30.9,29.89,WNW,293,0.0,0.0,35,0.00,,,0.01,Wunderground v.1.15,2014-02-26 10:27:00,
2014-02-26 05:32:00,58.5,30.9,29.89,WNW,293,0.0,0.0,35,0.00,,,0.01,Wunderground v.1.15,2014-02-26 10:32:00,
2014-02-26 05:37:00,58.4,30.8,29.89,WNW,293,0.0,0.0,35,0.00,,,0.01,Wunderground v.1.15,2014-02-26 10:37:00,
2014-02-26 05:43:00,58.2,30.7,29.89,WNW,293,0.0,0.0,35,0.00,,,0.01,Wunderground v.1.15,2014-02-26 10:43:00,
2014-02-26 05:49:00,58.0,30.5,29.89,WNW,293,0.0,0.0,35,0.00,,,0.01,Wunderground v.1.15,2014-02-26 10:49:00,
2014-02-26 05:54:00,57.9,30.4,29.89,WNW,293,0.0,0.0,35,0.00,,,0.01,Wunderground v.1.15,2014-02-26 10:54:00,
2014-02-26 05:59:00,57.8,30.3,29.89,WNW,293,0.0,0.0,35,0.00,,,0.01,Wunderground v.1.15,2014-02-26 10:59:00,
2014-02-26 06:04:00,57.7,30.2,29.89,WNW,293,0.0,0.0,35,0.00,,,0.01,Wunderground v.1.15,2014-02-26 11:04:00,
2014-02-26 06:09:00,57.7,30.2,29.89,WNW,293,0.0,0.0,35,0.00,,,0.01,Wunderground v.1.15,2014-02-26 11:09:00,
2014-02-26 06:14:00,57.7,30.2,29.89,WNW,293,0.0,0.0,35,0.00,,,0.01,Wunderground v.1.15,2014-02-26 11:14:00,
2014-02-26 06:19:00,57.7,30.2,29.89,WNW,293,0.0,0.0,35,0.00,,,0.01,Wunderground v.1.15,2014-02-26 11:19:00,
2014-02-26 06:24:00,57.6,30.8,29.89,WNW,293,0.0,0.0,36,0.00,,,0.01,Wunderground v.1.15,2014-02-26 11:24:00,
2014-02-26 06:29:00,57.5,30.7,29.89,WNW,293,0.0,0.0,36,0.00,,,0.01,Wunderground v.1.15,2014-02-26 11:29:00,
2014-02-26 06:34:00,57.5,30.7,29.89,WNW,293,0.0,0.0,36,0.00,,,0.01,Wunderground v.1.15,2014-02-26 11:34:00,
2014-02-26 06:39:00,57.4,30.6,29.89,WNW,293,0.0,0.0,36,0.00,,,0.01,Wunderground v.1.15,2014-02-26 11:39:00,
2014-02-26 06:44:00,57.3,30.5,29.89,WNW,293,0.0,0.0,36,0.00,,,0.01,Wunderground v.1.15,2014-02-26 11:44:00,
2014-02-26 06:49:00,57.3,30.5,29.89,WNW,293,0.0,0.0,36,0.00,,,0.01,Wunderground v.1.15,2014-02-26 11:49:00,
2014-02-26 06:54:00,57.3,30.5,29.89,WNW,293,0.0,0.0,36,0.00,,,0.01,Wunderground v.1.15,2014-02-26 11:54:00,
2014-02-26 07:01:00,57.5,30.7,29.89,WNW,293,0.0,0.0,36,0.00,,,0.01,Wunderground v.1.15,2014-02-26 12:01:00,
2014-02-26 07:07:00,57.5,30.7,29.89,WNW,293,0.0,0.0,36,0.00,,,0.01,Wunderground v.1.15,2014-02-26 12:07:00,
2014-02-26 07:12:00,57.5,31.4,29.89,WNW,293,0.0,0.0,37,0.00,,,0.01,Wunderground v.1.15,2014-02-26 12:12:00,
2014-02-26 07:18:00,57.7,31.6,29.89,WNW,293,0.0,0.0,37,0.00,,,0.01,Wunderground v.1.15,2014-02-26 12:18:00,
2014-02-26 07:23:00,57.8,31.7,29.89,WNW,293,0.0,0.0,37,0.00,,,0.01,Wunderground v.1.15,2014-02-26 12:23:00,
2014-02-26 07:29:00,58.1,31.9,29.89,WNW,293,0.0,0.0,37,0.00,,,0.01,Wunderground v.1.15,2014-02-26 12:29:00,
2014-02-26 07:37:00,58.6,32.4,29.89,WNW,293,0.0,0.0,37,0.00,,,0.01,Wunderground v.1.15,2014-02-26 12:37:00,
2014-02-26 07:43:00,59.1,32.8,29.89,WNW,293,0.0,0.0,37,0.00,,,0.01,Wunderground v.1.15,2014-02-26 12:43:00,
2014-02-26 07:48:00,59.7,33.4,29.89,WNW,293,0.0,0.0,37,0.00,,,0.01,Wunderground v.1.15,2014-02-26 12:48:00,
2014-02-26 07:53:00,60.3,33.9,29.89,WNW,293,0.0,0.0,37,0.00,,,0.01,Wunderground v.1.15,2014-02-26 12:53:00,
2014-02-26 07:58:00,60.8,34.3,29.89,WNW,293,0.0,0.0,37,0.00,,,0.01,Wunderground v.1.15,2014-02-26 12:58:00,
2014-02-26 08:04:00,61.3,34.8,29.89,WNW,293,0.0,0.0,37,0.00,,,0.01,Wunderground v.1.15,2014-02-26 13:04:00,
2014-02-26 08:09:00,61.8,34.5,29.89,WNW,293,0.0,0.0,36,0.00,,,0.01,Wunderground v.1.15,2014-02-26 13:09:00,
2014-02-26 08:14:00,62.2,34.9,29.89,WNW,293,0.0,0.0,36,0.00,,,0.01,Wunderground v.1.15,2014-02-26 13:14:00,
2014-02-26 08:19:00,63.0,35.6,29.89,WNW,293,0.0,0.0,36,0.00,,,0.01,Wunderground v.1.15,2014-02-26 13:19:00,
2014-02-26 08:24:00,63.4,36.0,29.90,WNW,293,0.0,1.0,36,0.00,,,0.01,Wunderground v.1.15,2014-02-26 13:24:00,
2014-02-26 08:29:00,63.7,36.2,29.89,WNW,293,0.0,1.0,36,0.00,,,0.01,Wunderground v.1.15,2014-02-26 13:29:00,
2014-02-26 08:34:00,64.2,36.0,29.89,WNW,293,0.0,0.0,35,0.00,,,0.01,Wunderground v.1.15,2014-02-26 13:34:00,
2014-02-26 08:39:00,64.6,36.3,29.89,WSW,239,1.0,2.0,35,0.00,,,0.01,Wunderground v.1.15,2014-02-26 13:39:00,
2014-02-26 08:44:00,65.1,36.8,29.89,WSW,239,1.0,1.0,35,0.00,,,0.01,Wunderground v.1.15,2014-02-26 13:44:00,
2014-02-26 08:49:00,65.9,36.7,29.89,SW,229,0.0,2.0,34,0.00,,,0.01,Wunderground v.1.15,2014-02-26 13:49:00,
2014-02-26 08:54:00,66.1,36.9,29.89,SW,229,0.0,1.0,34,0.00,,,0.01,Wunderground v.1.15,2014-02-26 13:54:00,
2014-02-26 08:59:00,66.3,37.1,29.89,SW,229,0.0,2.0,34,0.00,,,0.01,Wunderground v.1.15,2014-02-26 13:59:00,
2014-02-26 09:04:00,66.7,35.9,29.89,SW,222,1.0,2.0,32,0.00,,,0.01,Wunderground v.1.15,2014-02-26 14:04:00,
2014-02-26 09:09:00,67.3,33.9,29.89,SSE,168,1.0,3.0,29,0.00,,,0.01,Wunderground v.1.15,2014-02-26 14:09:00,
2014-02-26 09:14:00,68.0,36.2,29.89,SSW,193,1.0,1.0,31,0.00,,,0.01,Wunderground v.1.15,2014-02-26 14:14:00,
2014-02-26 09:19:00,68.8,43.5,29.89,SSW,193,0.0,1.0,40,0.00,,,0.01,Wunderground v.1.15,2014-02-26 14:19:00,
2014-02-26 09:27:00,69.7,56.1,29.90,SW,226,1.0,3.0,62,0.00,,,0.01,Wunderground v.1.15,2014-02-26 14:27:00,
2014-02-26 09:32:00,70.3,59.2,29.89,SW,227,1.0,2.0,68,0.00,,,0.01,Wunderground v.1.15,2014-02-26 14:32:00,
2014-02-26 09:37:00,70.8,61.7,29.89,SSW,193,1.0,5.0,73,0.00,,,0.01,Wunderground v.1.15,2014-02-26 14:37:00,
2014-02-26 09:43:00,71.4,63.1,29.89,SSE,168,1.0,1.0,75,0.00,,,0.01,Wunderground v.1.15,2014-02-26 14:43:00,
2014-02-26 09:48:00,71.7,63.7,29.89,SSW,203,1.0,7.0,76,0.00,,,0.01,Wunderground v.1.15,2014-02-26 14:48:00,
2014-02-26 09:53:00,72.5,64.5,29.89,SW,224,2.0,5.0,76,0.00,,,0.01,Wunderground v.1.15,2014-02-26 14:53:00,
2014-02-26 09:58:00,72.7,64.3,29.89,West,262,3.0,5.0,75,0.00,,,0.01,Wunderground v.1.15,2014-02-26 14:58:00,
2014-02-26 10:03:00,72.7,64.3,29.90,WSW,244,2.0,5.0,75,0.00,,,0.01,Wunderground v.1.15,2014-02-26 15:03:00,
2014-02-26 10:08:00,73.5,65.1,29.89,NNW,337,2.0,5.0,75,0.00,,,0.01,Wunderground v.1.15,2014-02-26 15:08:00,
2014-02-26 10:13:00,74.5,65.7,29.89,SSW,204,3.0,3.0,74,0.00,,,0.01,Wunderground v.1.15,2014-02-26 15:13:00,
2014-02-26 10:18:00,74.7,65.9,29.89,SW,218,3.0,3.0,74,0.00,,,0.01,Wunderground v.1.15,2014-02-26 15:18:00,
2014-02-26 10:24:00,74.4,65.6,29.89,South,190,2.0,3.0,74,0.00,,,0.01,Wunderground v.1.15,2014-02-26 15:24:00,
2014-02-26 10:29:00,74.7,66.2,29.89,NE,37,1.0,3.0,75,0.00,,,0.01,Wunderground v.1.15,2014-02-26 15:29:00,
2014-02-26 10:34:00,75.6,66.7,29.89,SSW,208,2.0,8.0,74,0.00,,,0.01,Wunderground v.1.15,2014-02-26 15:34:00,
2014-02-26 10:39:00,76.1,66.8,29.89,SSW,198,2.0,8.0,73,0.00,,,0.01,Wunderground v.1.15,2014-02-26 15:39:00,
2014-02-26 10:44:00,76.2,67.3,29.89,SSW,195,3.0,3.0,74,0.00,,,0.01,Wunderground v.1.15,2014-02-26 15:44:00,
2014-02-26 10:52:00,76.6,67.3,29.88,South,189,3.0,3.0,73,0.00,,,0.01,Wunderground v.1.15,2014-02-26 15:52:00,
2014-02-26 10:57:00,76.8,67.5,29.89,WSW,238,2.0,10.0,73,0.00,,,0.01,Wunderground v.1.15,2014-02-26 15:57:00,
2014-02-26 11:03:00,76.6,67.3,29.88,West,268,3.0,5.0,73,0.00,,,0.01,Wunderground v.1.15,2014-02-26 16:03:00,
2014-02-26 11:09:00,76.7,67.4,29.88,West,273,3.0,8.0,73,0.00,,,0.01,Wunderground v.1.15,2014-02-26 16:09:00,
2014-02-26 11:17:00,76.6,67.7,29.88,West,274,3.0,3.0,74,0.00,,,0.01,Wunderground v.1.15,2014-02-26 16:17:00,
2014-02-26 11:22:00,77.1,68.2,29.88,West,278,3.0,3.0,74,0.00,,,0.01,Wunderground v.1.15,2014-02-26 16:22:00,
2014-02-26 11:27:00,77.1,67.8,29.88,WSW,249,3.0,4.0,73,0.00,,,0.01,Wunderground v.1.15,2014-02-26 16:27:00,
2014-02-26 11:32:00,76.7,67.8,29.88,WSW,247,3.0,3.0,74,0.00,,,0.01,Wunderground v.1.15,2014-02-26 16:32:00,
2014-02-26 11:37:00,76.3,67.4,29.88,SSW,195,4.0,6.0,74,0.00,,,0.01,Wunderground v.1.15,2014-02-26 16:37:00,
2014-02-26 11:43:00,76.5,67.6,29.87,SSW,200,4.0,5.0,74,0.00,,,0.01,Wunderground v.1.15,2014-02-26 16:43:00,
2014-02-26 11:48:00,76.4,67.5,29.87,SW,226,4.0,6.0,74,0.00,,,0.01,Wunderground v.1.15,2014-02-26 16:48:00,
2014-02-26 11:53:00,76.3,67.8,29.87,South,175,4.0,7.0,75,0.00,,,0.01,Wunderground v.1.15,2014-02-26 16:53:00,
2014-02-26 11:58:00,76.2,67.7,29.87,South,175,5.0,9.0,75,0.00,,,0.01,Wunderground v.1.15,2014-02-26 16:58:00,
2014-02-26 12:03:00,76.7,67.8,29.87,South,189,5.0,7.0,74,0.00,,,0.01,Wunderground v.1.15,2014-02-26 17:03:00,
2014-02-26 12:08:00,77.0,68.1,29.86,SSW,193,5.0,8.0,74,0.00,,,0.01,Wunderground v.1.15,2014-02-26 17:08:00,
2014-02-26 12:14:00,76.7,67.8,29.86,WNW,291,4.0,5.0,74,0.00,,,0.01,Wunderground v.1.15,2014-02-26 17:14:00,
2014-02-26 12:21:00,76.6,67.7,29.86,ESE,118,4.0,8.0,74,0.00,,,0.01,Wunderground v.1.15,2014-02-26 17:21:00,
2014-02-26 12:26:00,76.7,67.8,29.85,South,185,3.0,4.0,74,0.00,,,0.01,Wunderground v.1.15,2014-02-26 17:26:00,
2014-02-26 12:31:00,77.3,68.4,29.85,SSW,202,2.0,4.0,74,0.00,,,0.01,Wunderground v.1.15,2014-02-26 17:31:00,
2014-02-26 12:36:00,77.1,68.2,29.85,WSW,247,3.0,7.0,74,0.00,,,0.01,Wunderground v.1.15,2014-02-26 17:36:00,
2014-02-26 12:42:00,77.3,68.4,29.84,WSW,243,3.0,3.0,74,0.00,,,0.01,Wunderground v.1.15,2014-02-26 17:42:00,
2014-02-26 12:47:00,77.3,68.4,29.84,WSW,254,3.0,5.0,74,0.00,,,0.01,Wunderground v.1.15,2014-02-26 17:47:00,
2014-02-26 12:53:00,77.7,68.7,29.84,SW,224,3.0,5.0,74,0.00,,,0.01,Wunderground v.1.15,2014-02-26 17:53:00,
2014-02-26 12:59:00,77.7,68.7,29.83,SSE,167,3.0,8.0,74,0.00,,,0.01,Wunderground v.1.15,2014-02-26 17:59:00,
2014-02-26 13:04:00,77.8,68.8,29.83,West,262,4.0,8.0,74,0.00,,,0.01,Wunderground v.1.15,2014-02-26 18:04:00,
2014-02-26 13:09:00,78.1,69.1,29.83,SSW,198,4.0,8.0,74,0.00,,,0.01,Wunderground v.1.15,2014-02-26 18:09:00,
2014-02-26 13:14:00,78.8,69.8,29.82,SW,225,3.0,12.0,74,0.00,,,0.01,Wunderground v.1.15,2014-02-26 18:14:00,
2014-02-26 13:19:00,78.7,69.7,29.82,SSW,197,4.0,12.0,74,0.00,,,0.01,Wunderground v.1.15,2014-02-26 18:19:00,
2014-02-26 13:24:00,78.2,69.2,29.81,SSW,206,4.0,10.0,74,0.00,,,0.01,Wunderground v.1.15,2014-02-26 18:24:00,
2014-02-26 13:29:00,78.0,69.0,29.81,SSW,208,4.0,10.0,74,0.00,,,0.01,Wunderground v.1.15,2014-02-26 18:29:00,
2014-02-26 13:37:00,77.8,68.8,29.81,West,270,5.0,9.0,74,0.00,,,0.01,Wunderground v.1.15,2014-02-26 18:37:00,
2014-02-26 13:42:00,77.6,68.7,29.80,SE,132,4.0,7.0,74,0.00,,,0.01,Wunderground v.1.15,2014-02-26 18:42:00,
2014-02-26 13:47:00,77.1,68.2,29.80,NW,316,5.0,7.0,74,0.00,,,0.01,Wunderground v.1.15,2014-02-26 18:47:00,
2014-02-26 13:53:00,77.0,68.1,29.80,WSW,245,4.0,8.0,74,0.00,,,0.01,Wunderground v.1.15,2014-02-26 18:53:00,
2014-02-26 13:58:00,77.3,68.4,29.80,WNW,303,4.0,8.0,74,0.00,,,0.01,Wunderground v.1.15,2014-02-26 18:58:00,
2014-02-26 14:04:00,77.9,68.9,29.80,South,180,4.0,4.0,74,0.00,,,0.01,Wunderground v.1.15,2014-02-26 19:04:00,
2014-02-26 14:09:00,78.0,68.6,29.80,West,280,4.0,8.0,73,0.00,,,0.01,Wunderground v.1.15,2014-02-26 19:09:00,
2014-02-26 14:14:00,77.7,68.4,29.80,NW,313,5.0,5.0,73,0.00,,,0.01,Wunderground v.1.15,2014-02-26 19:14:00,
2014-02-26 14:19:00,77.7,68.4,29.79,West,278,4.0,8.0,73,0.00,,,0.01,Wunderground v.1.15,2014-02-26 19:19:00,
2014-02-26 14:24:00,77.6,68.7,29.79,SSW,193,4.0,9.0,74,0.00,,,0.01,Wunderground v.1.15,2014-02-26 19:24:00,
2014-02-26 14:29:00,77.8,68.8,29.78,SSW,193,4.0,9.0,74,0.00,,,0.01,Wunderground v.1.15,2014-02-26 19:29:00,
2014-02-26 14:34:00,77.7,68.4,29.78,SW,229,4.0,9.0,73,0.00,,,0.01,Wunderground v.1.15,2014-02-26 19:34:00,
2014-02-26 14:42:00,78.1,69.1,29.77,WSW,246,4.0,8.0,74,0.00,,,0.01,Wunderground v.1.15,2014-02-26 19:42:00,
2014-02-26 14:47:00,78.2,69.2,29.77,SSW,197,4.0,8.0,74,0.00,,,0.01,Wunderground v.1.15,2014-02-26 19:47:00,
2014-02-26 14:52:00,77.8,68.8,29.77,West,262,4.0,4.0,74,0.00,,,0.01,Wunderground v.1.15,2014-02-26 19:52:00,
2014-02-26 14:57:00,77.3,68.4,29.77,West,266,4.0,7.0,74,0.00,,,0.01,Wunderground v.1.15,2014-02-26 19:57:00,
2014-02-26 15:02:00,77.0,68.1,29.77,South,180,3.0,3.0,74,0.00,,,0.01,Wunderground v.1.15,2014-02-26 20:02:00,
2014-02-26 15:07:00,77.1,68.2,29.77,SSE,162,3.0,5.0,74,0.00,,,0.01,Wunderground v.1.15,2014-02-26 20:07:00,
2014-02-26 15:12:00,77.1,68.2,29.76,SE,137,3.0,5.0,74,0.00,,,0.01,Wunderground v.1.15,2014-02-26 20:12:00,
2014-02-26 15:17:00,77.1,68.2,29.76,SSE,164,3.0,6.0,74,0.00,,,0.01,Wunderground v.1.15,2014-02-26 20:17:00,
2014-02-26 15:22:00,76.7,67.8,29.76,WSW,238,4.0,7.0,74,0.00,,,0.01,Wunderground v.1.15,2014-02-26 20:22:00,
2014-02-26 15:26:00,76.6,67.7,29.76,NE,43,4.0,7.0,74,0.00,,,0.01,Wunderground v.1.15,2014-02-26 20:26:00,
2014-02-26 15:31:00,76.6,68.1,29.76,SE,140,3.0,7.0,75,0.00,,,0.01,Wunderground v.1.15,2014-02-26 20:31:00,
2014-02-26 15:36:00,76.5,67.6,29.76,SSW,208,4.0,8.0,74,0.00,,,0.01,Wunderground v.1.15,2014-02-26 20:36:00,
2014-02-26 15:41:00,76.6,67.7,29.77,SSW,197,5.0,8.0,74,0.00,,,0.01,Wunderground v.1.15,2014-02-26 20:41:00,
2014-02-26 15:46:00,76.4,67.5,29.76,South,175,5.0,9.0,74,0.00,,,0.01,Wunderground v.1.15,2014-02-26 20:46:00,
2014-02-26 15:51:00,76.4,67.5,29.77,SSE,168,4.0,9.0,74,0.00,,,0.01,Wunderground v.1.15,2014-02-26 20:51:00,
2014-02-26 15:56:00,76.3,67.4,29.77,NW,322,4.0,6.0,74,0.00,,,0.01,Wunderground v.1.15,2014-02-26 20:56:00,
2014-02-26 16:01:00,76.4,67.5,29.77,SW,229,4.0,4.0,74,0.00,,,0.01,Wunderground v.1.15,2014-02-26 21:01:00,
2014-02-26 16:07:00,76.5,67.6,29.77,SSW,200,3.0,6.0,74,0.00,,,0.01,Wunderground v.1.15,2014-02-26 21:07:00,
2014-02-26 16:11:00,76.4,67.5,29.77,SW,224,4.0,4.0,74,0.00,,,0.01,Wunderground v.1.15,2014-02-26 21:11:00,
2014-02-26 16:16:00,76.1,67.2,29.77,West,269,4.0,8.0,74,0.00,,,0.01,Wunderground v.1.15,2014-02-26 21:16:00,
2014-02-26 16:21:00,75.8,66.9,29.77,SSW,204,3.0,3.0,74,0.00,,,0.01,Wunderground v.1.15,2014-02-26 21:21:00,
2014-02-26 16:26:00,75.5,66.2,29.77,SSW,193,4.0,6.0,73,0.00,,,0.01,Wunderground v.1.15,2014-02-26 21:26:00,
2014-02-26 16:31:00,75.4,66.1,29.77,West,271,3.0,3.0,73,0.00,,,0.01,Wunderground v.1.15,2014-02-26 21:31:00,
2014-02-26 16:37:00,75.3,65.6,29.77,SW,224,3.0,5.0,72,0.00,,,0.01,Wunderground v.1.15,2014-02-26 21:37:00,
2014-02-26 16:41:00,75.3,65.2,29.77,South,180,2.0,3.0,71,0.00,,,0.01,Wunderground v.1.15,2014-02-26 21:41:00,
2014-02-26 16:47:00,75.2,65.1,29.77,South,180,2.0,5.0,71,0.00,,,0.01,Wunderground v.1.15,2014-02-26 21:47:00,
2014-02-26 16:52:00,75.1,64.6,29.76,SSE,152,2.0,3.0,70,0.00,,,0.01,Wunderground v.1.15,2014-02-26 21:52:00,
2014-02-26 16:57:00,75.1,64.2,29.76,SW,236,3.0,6.0,69,0.00,,,0.01,Wunderground v.1.15,2014-02-26 21:57:00,
2014-02-26 17:03:00,74.9,64.0,29.76,SSW,200,3.0,5.0,69,0.00,,,0.01,Wunderground v.1.15,2014-02-26 22:03:00,
2014-02-26 17:09:00,74.8,63.9,29.76,SW,233,3.0,6.0,69,0.00,,,0.01,Wunderground v.1.15,2014-02-26 22:09:00,
2014-02-26 17:17:00,74.7,63.9,29.76,SSW,195,3.0,4.0,69,0.00,,,0.01,Wunderground v.1.15,2014-02-26 22:17:00,
2014-02-26 17:22:00,74.7,63.9,29.76,NW,316,3.0,3.0,69,0.00,,,0.01,Wunderground v.1.15,2014-02-26 22:22:00,
2014-02-26 17:27:00,74.7,63.9,29.76,SSW,208,3.0,3.0,69,0.00,,,0.01,Wunderground v.1.15,2014-02-26 22:27:00,
2014-02-26 17:32:00,74.7,63.4,29.76,SW,232,3.0,3.0,68,0.00,,,0.01,Wunderground v.1.15,2014-02-26 22:32:00,
2014-02-26 17:37:00,74.6,63.3,29.76,SSW,213,3.0,10.0,68,0.00,,,0.01,Wunderground v.1.15,2014-02-26 22:37:00,
2014-02-26 17:42:00,74.6,62.9,29.76,South,175,3.0,3.0,67,0.00,,,0.01,Wunderground v.1.15,2014-02-26 22:42:00,
2014-02-26 17:47:00,74.5,62.4,29.76,North,349,2.0,3.0,66,0.00,,,0.01,Wunderground v.1.15,2014-02-26 22:47:00,
2014-02-26 17:52:00,74.4,62.3,29.76,WSW,251,2.0,4.0,66,0.00,,,0.01,Wunderground v.1.15,2014-02-26 22:52:00,
2014-02-26 17:58:00,74.3,61.8,29.76,SW,218,2.0,4.0,65,0.00,,,0.01,Wunderground v.1.15,2014-02-26 22:58:00,
2014-02-26 18:04:00,74.2,61.2,29.76,SSE,161,2.0,2.0,64,0.00,,,0.01,Wunderground v.1.15,2014-02-26 23:04:00,
2014-02-26 18:12:00,74.1,61.1,29.76,SSW,204,1.0,2.0,64,0.00,,,0.01,Wunderground v.1.15,2014-02-26 23:12:00,
2014-02-26 18:18:00,74.0,60.2,29.76,SW,229,1.0,4.0,62,0.00,,,0.01,Wunderground v.1.15,2014-02-26 23:18:00,
2014-02-26 18:24:00,73.9,59.6,29.76,SSW,193,2.0,6.0,61,0.00,,,0.01,Wunderground v.1.15,2014-02-26 23:24:00,
2014-02-26 18:32:00,73.8,59.0,29.76,SSW,192,2.0,4.0,60,0.00,,,0.01,Wunderground v.1.15,2014-02-26 23:32:00,
2014-02-26 18:37:00,73.7,58.9,29.77,SSE,161,2.0,4.0,60,0.00,,,0.01,Wunderground v.1.15,2014-02-26 23:37:00,
2014-02-26 18:42:00,73.7,58.5,29.76,SSW,201,2.0,2.0,59,0.00,,,0.01,Wunderground v.1.15,2014-02-26 23:42:00,
2014-02-26 18:48:00,73.7,58.0,29.77,South,191,2.0,5.0,58,0.00,,,0.01,Wunderground v.1.15,2014-02-26 23:48:00,
2014-02-26 18:53:00,73.7,57.5,29.77,SSW,203,2.0,5.0,57,0.00,,,0.01,Wunderground v.1.15,2014-02-26 23:53:00,
2014-02-26 18:58:00,73.7,57.0,29.77,SSW,192,2.0,6.0,56,0.00,,,0.01,Wunderground v.1.15,2014-02-26 23:58:00,
2014-02-26 19:04:00,73.7,57.0,29.77,WSW,256,2.0,4.0,56,0.00,,,0.01,Wunderground v.1.15,2014-02-27 00:04:00,
2014-02-26 19:09:00,73.7,56.5,29.77,SSW,197,2.0,5.0,55,0.00,,,0.01,Wunderground v.1.15,2014-02-27 00:09:00,
2014-02-26 19:14:00,73.7,56.5,29.77,SSW,195,2.0,5.0,55,0.00,,,0.01,Wunderground v.1.15,2014-02-27 00:14:00,
2014-02-26 19:19:00,73.7,56.0,29.77,South,180,3.0,5.0,54,0.00,,,0.01,Wunderground v.1.15,2014-02-27 00:19:00,
2014-02-26 19:24:00,73.7,55.5,29.78,SSW,209,3.0,5.0,53,0.00,,,0.01,Wunderground v.1.15,2014-02-27 00:24:00,
2014-02-26 19:29:00,73.7,55.0,29.78,SW,216,2.0,5.0,52,0.00,,,0.01,Wunderground v.1.15,2014-02-27 00:29:00,
2014-02-26 19:34:00,73.8,55.1,29.78,WSW,245,2.0,2.0,52,0.00,,,0.01,Wunderground v.1.15,2014-02-27 00:34:00,
2014-02-26 19:41:00,73.8,54.5,29.79,SSW,209,2.0,5.0,51,0.00,,,0.01,Wunderground v.1.15,2014-02-27 00:41:00,
2014-02-26 19:47:00,73.8,54.5,29.79,SW,214,2.0,2.0,51,0.00,,,0.01,Wunderground v.1.15,2014-02-27 00:47:00,
2014-02-26 19:52:00,73.8,54.5,29.79,WNW,296,1.0,1.0,51,0.00,,,0.01,Wunderground v.1.15,2014-02-27 00:52:00,
2014-02-26 19:57:00,73.8,54.0,29.79,SW,219,1.0,5.0,50,0.00,,,0.01,Wunderground v.1.15,2014-02-27 00:57:00,
2014-02-26 20:02:00,73.8,54.0,29.79,South,185,1.0,3.0,50,0.00,,,0.01,Wunderground v.1.15,2014-02-27 01:02:00,
2014-02-26 20:07:00,73.8,54.0,29.79,SW,225,1.0,5.0,50,0.00,,,0.01,Wunderground v.1.15,2014-02-27 01:07:00,
2014-02-26 20:13:00,73.8,53.4,29.80,WSW,237,2.0,4.0,49,0.00,,,0.01,Wunderground v.1.15,2014-02-27 01:13:00,
2014-02-26 20:19:00,73.8,53.4,29.80,WNW,285,2.0,6.0,49,0.00,,,0.01,Wunderground v.1.15,2014-02-27 01:19:00,
2014-02-26 20:24:00,73.8,52.9,29.80,West,274,2.0,2.0,48,0.00,,,0.01,Wunderground v.1.15,2014-02-27 01:24:00,
2014-02-26 20:29:00,73.8,52.3,29.80,SW,229,1.0,3.0,47,0.00,,,0.01,Wunderground v.1.15,2014-02-27 01:29:00,
2014-02-26 20:37:00,73.8,52.3,29.80,WSW,243,2.0,4.0,47,0.00,,,0.01,Wunderground v.1.15,2014-02-27 01:37:00,
2014-02-26 20:43:00,73.7,52.2,29.80,West,281,2.0,2.0,47,0.00,,,0.01,Wunderground v.1.15,2014-02-27 01:43:00,
2014-02-26 20:48:00,73.7,52.2,29.80,West,266,1.0,2.0,47,0.00,,,0.01,Wunderground v.1.15,2014-02-27 01:48:00,
2014-02-26 20:54:00,73.7,51.6,29.81,NW,314,1.0,1.0,46,0.00,,,0.01,Wunderground v.1.15,2014-02-27 01:54:00,
2014-02-26 20:59:00,73.7,51.6,29.81,SW,225,1.0,2.0,46,0.00,,,0.01,Wunderground v.1.15,2014-02-27 01:59:00,
2014-02-26 21:04:00,73.7,51.0,29.81,SE,141,1.0,3.0,45,0.00,,,0.01,Wunderground v.1.15,2014-02-27 02:04:00,
2014-02-26 21:09:00,73.7,51.0,29.81,NW,316,1.0,7.0,45,0.00,,,0.01,Wunderground v.1.15,2014-02-27 02:09:00,
2014-02-26 21:14:00,73.7,50.4,29.80,SW,233,1.0,7.0,44,0.00,,,0.01,Wunderground v.1.15,2014-02-27 02:14:00,
2014-02-26 21:19:00,73.7,50.4,29.80,West,260,1.0,7.0,44,0.00,,,0.01,Wunderground v.1.15,2014-02-27 02:19:00,
2014-02-26 21:24:00,73.7,49.8,29.80,WNW,292,1.0,2.0,43,0.00,,,0.01,Wunderground v.1.15,2014-02-27 02:24:00,
2014-02-26 21:32:00,73.6,49.1,29.80,WSW,244,1.0,1.0,42,0.00,,,0.01,Wunderground v.1.15,2014-02-27 02:32:00,
2014-02-26 21:37:00,73.5,47.7,29.80,West,260,1.0,2.0,40,0.00,,,0.01,Wunderground v.1.15,2014-02-27 02:37:00,
2014-02-26 21:42:00,73.5,47.0,29.80,SSE,168,1.0,1.0,39,0.00,,,0.01,Wunderground v.1.15,2014-02-27 02:42:00,
2014-02-26 21:47:00,73.5,46.3,29.79,SSW,194,2.0,5.0,38,0.00,,,0.01,Wunderground v.1.15,2014-02-27 02:47:00,
2014-02-26 21:53:00,73.4,46.2,29.79,NW,314,2.0,2.0,38,0.00,,,0.01,Wunderground v.1.15,2014-02-27 02:53:00,
2014-02-26 21:59:00,73.3,45.4,29.79,SW,214,1.0,2.0,37,0.00,,,0.01,Wunderground v.1.15,2014-02-27 02:59:00,
2014-02-26 22:04:00,73.3,45.4,29.80,SW,231,1.0,1.0,37,0.00,,,0.01,Wunderground v.1.15,2014-02-27 03:04:00,
2014-02-26 22:09:00,73.3,44.7,29.80,WNW,289,1.0,2.0,36,0.00,,,0.01,Wunderground v.1.15,2014-02-27 03:09:00,
2014-02-26 22:14:00,73.2,44.6,29.80,West,276,1.0,3.0,36,0.00,,,0.01,Wunderground v.1.15,2014-02-27 03:14:00,
2014-02-26 22:21:00,73.1,44.5,29.80,WNW,283,1.0,3.0,36,0.00,,,0.01,Wunderground v.1.15,2014-02-27 03:21:00,
2014-02-26 22:26:00,73.1,44.5,29.80,SW,218,1.0,2.0,36,0.00,,,0.01,Wunderground v.1.15,2014-02-27 03:26:00,
2014-02-26 22:31:00,73.1,44.5,29.80,North,351,1.0,3.0,36,0.00,,,0.01,Wunderground v.1.15,2014-02-27 03:31:00,
2014-02-26 22:37:00,73.0,44.5,29.80,SSW,213,1.0,3.0,36,0.00,,,0.01,Wunderground v.1.15,2014-02-27 03:37:00,
2014-02-26 22:43:00,73.0,43.7,29.80,West,260,1.0,1.0,35,0.00,,,0.01,Wunderground v.1.15,2014-02-27 03:43:00,
2014-02-26 22:49:00,73.0,42.2,29.80,West,261,0.0,2.0,33,0.00,,,0.01,Wunderground v.1.15,2014-02-27 03:49:00,
2014-02-26 22:57:00,72.9,38.8,29.80,SSW,202,2.0,4.0,29,0.00,,,0.02,Wunderground v.1.15,2014-02-27 03:57:00,
2014-02-26 23:02:00,72.7,40.3,29.80,WSW,256,3.0,3.0,31,0.00,,,0.02,Wunderground v.1.15,2014-02-27 04:02:00,
2014-02-26 23:08:00,72.3,43.1,29.80,SSE,168,2.0,3.0,35,0.00,,,0.02,Wunderground v.1.15,2014-02-27 04:08:00,
2014-02-26 23:14:00,72.1,42.2,29.80,West,278,1.0,2.0,34,0.00,,,0.02,Wunderground v.1.15,2014-02-27 04:14:00,
2014-02-26 23:19:00,71.9,40.4,29.80,West,278,1.0,2.0,32,0.00,,,0.02,Wunderground v.1.15,2014-02-27 04:19:00,
2014-02-26 23:26:00,71.8,40.3,29.79,SSW,213,2.0,3.0,32,0.00,,,0.02,Wunderground v.1.15,2014-02-27 04:26:00,
2014-02-26 23:32:00,71.7,38.6,29.78,SSW,204,1.0,1.0,30,0.00,,,0.02,Wunderground v.1.15,2014-02-27 04:32:00,
2014-02-26 23:38:00,71.5,38.4,29.78,SW,223,2.0,2.0,30,0.00,,,0.02,Wunderground v.1.15,2014-02-27 04:38:00,
2014-02-26 23:44:00,71.2,37.3,29.78,SSW,212,2.0,3.0,29,0.00,,,0.02,Wunderground v.1.15,2014-02-27 04:44:00,
2014-02-26 23:52:00,70.9,36.1,29.78,WSW,244,1.0,1.0,28,0.00,,,0.02,Wunderground v.1.15,2014-02-27 04:52:00,
2014-02-26 23:57:00,70.8,35.1,29.78,SSW,193,1.0,2.0,27,0.00,,,0.02,Wunderground v.1.15,2014-02-27 04:57:00,